KQ4NAL Weather Reports


Display with metric or nautical units.
time (UTC)temp
F
wind
direction
speed
MPH
gust
MPH
rain 1hr
in
rain 24hr
in
rain mn
in
humidity
%
barometer
mb
20260504175102 69 139 5.0 7.0 0.00 0.00 0.00 63 1010.2
20260504174600 68 344 3.0 5.0 0.00 0.00 0.00 65 1010.2
20260504174057 68 188 7.0 8.0 0.00 0.00 0.00 65 1010.2
20260504173554 67 154 5.0 7.0 0.00 0.00 0.00 65 1010.5
20260504173051 67 201 9.0 13.0 0.00 0.00 0.00 65 1010.3
20260504172547 67 185 8.0 11.0 0.00 0.00 0.00 65 1010.2
20260504172044 67 228 5.0 6.0 0.00 0.00 0.00 65 1010.1
20260504171541 66 204 5.0 7.0 0.00 0.00 0.00 65 1010.2
20260504171038 65 198 4.0 5.0 0.00 0.00 0.00 67 1010.2
20260504170533 65 172 4.0 6.0 0.00 0.00 0.00 67 1010.1
20260504150918 65 266 2.0 2.0 0.00 0.00 0.00 67 1010.6
20260504150414 64 162 4.0 5.0 0.00 0.00 0.00 67 1010.8
20260504140841 61 184 5.0 6.0 0.00 0.00 0.00 70 1010.7
20260504140336 60 238 5.0 7.0 0.00 0.00 0.00 70 1010.8
20260504130805 56 153 6.0 8.0 0.00 0.00 0.00 74 1011.7
20260504130301 56 185 7.0 8.0 0.00 0.00 0.00 74 1011.6
20260504120225 55 238 5.0 6.0 0.00 0.00 0.00 73 1012.0
20260504110647 53 204 4.0 6.0 0.00 0.00 0.00 72 1011.4
20260504110144 52 196 2.0 2.0 0.00 0.00 0.00 74 1011.6
20260504100609 50 9 1.0 1.0 0.00 0.00 0.00 75 1011.8
20260504100107 50 7 1.0 2.0 0.00 0.00 0.00 75 1011.9
20260504082002 50 175 2.0 3.0 0.00 0.00 0.00 72 1012.3
20260504081500 49 55 3.0 3.0 0.00 0.00 0.00 72 1012.3
20260504080950 50 183 2.0 2.0 0.00 0.00 0.00 71 1012.6
20260504080447 50 94 2.0 2.0 0.00 0.00 0.00 69 1012.4
20260504050253 53 184 4.0 5.0 0.00 0.00 0.00 64 1014.2
20260504045750 53 153 1.0 2.0 0.00 0.00 0.00 64 1014.1
20260504045244 53 94 1.0 2.0 0.00 0.00 0.00 64 1013.9
20260504044742 53 125 3.0 3.0 0.00 0.00 0.00 63 1014.1
20260504044240 53 271 2.0 2.0 0.00 0.00 0.00 64 1014.1
20260504043737 53 17 1.0 2.0 0.00 0.00 0.00 64 1014.3
20260504043233 53 112 4.0 6.0 0.00 0.00 0.00 63 1014.2
20260504042731 53 165 3.0 3.0 0.00 0.00 0.00 64 1014.1
20260504042227 53 206 2.0 2.0 0.00 0.00 0.00 65 1014.3
20260504041724 52 159 3.0 5.0 0.00 0.00 0.00 65 1014.5
20260504041220 51 126 2.0 2.0 0.00 0.00 0.00 67 1014.4
20260504040716 52 234 1.0 1.0 0.00 0.00 0.00 66 1014.4
20260504040214 53 15 0.0 1.0 0.00 0.00 0.00 67 1014.5
20260504035710 53 84 1.0 1.0 0.00 0.00 0.00 66 1014.5
20260504035207 52 15 1.0 1.0 0.00 0.00 0.00 66 1014.6
20260504034704 52 353 1.0 1.0 0.00 0.00 0.00 66 1014.8
20260504034201 53 311 1.0 2.0 0.00 0.00 0.00 65 1014.7
20260504033659 53 327 1.0 2.0 0.00 0.00 0.00 64 1014.7
20260504033156 53 245 3.0 3.0 0.00 0.00 0.00 63 1014.8
20260504032653 53 337 1.0 1.0 0.00 0.00 0.00 67 1014.7
20260504032150 52 10 1.0 1.0 0.00 0.00 0.00 67 1014.7
20260504031647 52 344 1.0 1.0 0.00 0.00 0.00 67 1014.7
20260504031143 52 41 1.0 1.0 0.00 0.00 0.00 69 1014.5
20260504030640 52 9 1.0 1.0 0.00 0.00 0.00 73 1014.6
20260504030137 52 16 1.0 1.0 0.00 0.00 0.00 74 1014.8
20260504025634 51 31 1.0 1.0 0.00 0.00 0.00 76 1014.8
20260504025130 51 13 1.0 1.0 0.00 0.00 0.00 78 1014.8
20260504024628 52 353 0.0 1.0 0.00 0.00 0.00 78 1015.0
20260504024124 52 5 0.0 0.0 0.00 0.00 0.00 74 1014.8
20260504023621 53 3 0.0 0.0 0.00 0.00 0.00 73 1015.0
20260504023117 53 4 1.0 1.0 0.00 0.00 0.00 69 1014.9
20260504022614 53 0 0.0 0.0 0.00 0.00 0.00 68 1014.8
20260504022109 53 25 2.0 2.0 0.00 0.00 0.00 68 1014.5
20260504021608 53 51 1.0 1.0 0.00 0.00 0.00 68 1014.3
20260504021104 53 16 1.0 1.0 0.00 0.00 0.00 68 1014.6
20260504020601 53 61 1.0 2.0 0.00 0.00 0.00 69 1014.7
20260504020057 52 8 1.0 1.0 0.00 0.00 0.00 73 1014.9
20260504015554 52 41 1.0 1.0 0.00 0.00 0.00 72 1014.7
20260504015049 53 7 0.0 0.0 0.00 0.00 0.00 73 1014.8
20260504014546 53 3 0.0 0.0 0.00 0.00 0.00 66 1014.6
20260504014043 53 0 0.0 0.0 0.00 0.00 0.00 66 1014.7
20260504013541 54 85 1.0 2.0 0.00 0.00 0.00 63 1014.3
20260504013038 54 28 0.0 1.0 0.00 0.00 0.00 62 1014.3
20260504012535 54 14 1.0 1.0 0.00 0.00 0.00 61 1014.2
20260504012033 55 15 1.0 2.0 0.00 0.00 0.00 60 1014.2
20260504011529 56 59 2.0 2.0 0.00 0.00 0.00 59 1014.4
20260504011026 56 224 2.0 2.0 0.00 0.00 0.00 56 1014.7
20260504010521 56 340 1.0 1.0 0.00 0.00 0.00 55 1014.8
20260504010017 57 147 7.0 9.0 0.00 0.00 0.00 51 1014.8
20260504005514 56 171 4.0 6.0 0.00 0.00 0.00 52 1014.8
20260504005012 57 179 2.0 2.0 0.00 0.00 0.00 51 1014.8
20260504004509 57 241 3.0 5.0 0.00 0.00 0.00 51 1014.8
20260504004006 58 9 3.0 3.0 0.00 0.00 0.00 49 1014.6
20260504003502 58 309 3.0 3.0 0.00 0.00 0.00 47 1014.8
20260504002959 58 348 1.0 1.0 0.00 0.00 0.00 47 1014.8
20260504002456 58 354 2.0 2.0 0.00 0.00 0.00 47 1014.5
20260504001954 58 256 2.0 2.0 0.00 0.00 0.00 46 1014.3
20260504001451 58 226 5.0 7.0 0.00 0.00 0.00 44 1014.4
20260504000947 58 225 3.0 3.0 0.00 0.00 0.00 45 1014.3
20260504000444 59 180 3.0 3.0 0.00 0.00 0.00 44 1014.5
20260503235942 59 185 4.0 6.0 0.00 0.00 0.00 45 1014.2
20260503235439 59 223 2.0 2.0 0.00 0.00 0.00 44 1014.2
20260503234937 59 180 2.0 2.0 0.00 0.00 0.00 43 1014.3
20260503234434 59 161 4.0 5.0 0.00 0.00 0.00 43 1014.1
20260503233932 59 150 4.0 7.0 0.00 0.00 0.00 43 1014.2
20260503233428 59 228 4.0 5.0 0.00 0.00 0.00 43 1014.3
20260503232925 60 204 5.0 6.0 0.00 0.00 0.00 42 1014.5
20260503232422 60 218 3.0 3.0 0.00 0.00 0.00 43 1014.6
20260503231920 60 212 5.0 6.0 0.00 0.00 0.00 43 1014.8
20260503231417 60 235 5.0 7.0 0.00 0.00 0.00 42 1014.7
20260503230913 60 216 2.0 3.0 0.00 0.00 0.00 43 1014.9
20260503230409 60 200 4.0 5.0 0.00 0.00 0.00 43 1014.6
20260503225908 60 232 6.0 8.0 0.00 0.00 0.00 42 1015.0
20260503225403 60 188 5.0 7.0 0.00 0.00 0.00 41 1015.3
20260503224900 60 207 5.0 6.0 0.00 0.00 0.00 41 1015.4
20260503224357 61 204 5.0 6.0 0.00 0.00 0.00 40 1015.4
20260503223855 62 175 2.0 3.0 0.00 0.00 0.00 42 1015.6
20260503223352 62 185 7.0 15.0 0.00 0.00 0.00 41 1015.3
20260503222847 62 218 4.0 6.0 0.00 0.00 0.00 40 1015.5
20260503222347 62 187 4.0 6.0 0.00 0.00 0.00 40 1015.7
20260503221844 61 6 3.0 5.0 0.00 0.00 0.00 39 1015.8
20260503221343 63 345 2.0 3.0 0.00 0.00 0.00 40 1015.8
20260503220838 62 209 3.0 5.0 0.00 0.00 0.00 41 1015.9
20260503220335 62 194 1.0 2.0 0.00 0.00 0.00 39 1016.0
20260503215832 62 35 3.0 3.0 0.00 0.00 0.00 40 1016.2
20260503215329 61 227 6.0 7.0 0.00 0.00 0.00 41 1016.0
20260503214827 61 193 6.0 9.0 0.00 0.00 0.00 39 1015.8
20260503214324 62 183 5.0 6.0 0.00 0.00 0.00 41 1016.0
20260503213821 64 249 6.0 8.0 0.00 0.00 0.00 36 1015.9
20260503213319 64 1 8.0 11.0 0.00 0.00 0.00 35 1016.0
20260503212815 64 308 5.0 6.0 0.00 0.00 0.00 37 1016.0
20260503212313 64 213 6.0 10.0 0.00 0.00 0.00 38 1016.1
20260503211810 63 334 1.0 2.0 0.00 0.00 0.00 37 1016.0
20260503211307 62 304 3.0 7.0 0.00 0.00 0.00 38 1016.3
20260503210807 63 24 2.0 2.0 0.00 0.00 0.00 37 1016.4
20260503210305 62 316 3.0 3.0 0.00 0.00 0.00 36 1016.4
20260503205800 63 353 2.0 2.0 0.00 0.00 0.00 39 1016.5
20260503205257 62 348 1.0 2.0 0.00 0.00 0.00 39 1016.4
20260503204753 64 18 3.0 5.0 0.00 0.00 0.00 37 1016.4
20260503204251 64 233 3.0 3.0 0.00 0.00 0.00 36 1016.3
20260503203748 64 208 6.0 7.0 0.00 0.00 0.00 37 1016.3
20260503203245 64 193 4.0 6.0 0.00 0.00 0.00 39 1016.3
20260503202742 63 211 4.0 6.0 0.00 0.00 0.00 39 1016.5
20260503202240 63 358 2.0 2.0 0.00 0.00 0.00 41 1016.7
20260503201738 62 207 7.0 9.0 0.00 0.00 0.00 38 1016.7
20260503201235 64 54 2.0 3.0 0.00 0.00 0.00 39 1016.7
20260503200732 62 175 9.0 10.0 0.00 0.00 0.00 40 1016.8
20260503200228 62 204 8.0 9.0 0.00 0.00 0.00 41 1016.8
20260503195725 61 213 6.0 7.0 0.00 0.00 0.00 39 1016.9
20260503195222 61 174 6.0 8.0 0.00 0.00 0.00 40 1017.0
20260503194719 61 338 4.0 5.0 0.00 0.00 0.00 40 1017.4
20260503194215 62 200 8.0 10.0 0.00 0.00 0.00 38 1017.6
20260503193711 61 248 8.0 13.0 0.00 0.00 0.00 38 1017.6
20260503193207 61 194 9.0 14.0 0.00 0.00 0.00 39 1017.8
20260503192703 64 197 7.0 8.0 0.00 0.00 0.00 37 1017.4
20260503192158 63 277 3.0 3.0 0.00 0.00 0.00 43 1017.7
20260503191655 62 309 2.0 2.0 0.00 0.00 0.00 40 1017.9
20260503191152 62 209 5.0 7.0 0.00 0.00 0.00 40 1018.0
20260503190649 63 264 5.0 7.0 0.00 0.00 0.00 38 1018.2
20260503190146 63 244 5.0 6.0 0.00 0.00 0.00 38 1017.8
20260503185643 63 322 5.0 9.0 0.00 0.00 0.00 43 1018.3
20260503185138 62 218 2.0 3.0 0.00 0.00 0.00 42 1018.2
20260503184633 62 144 5.0 7.0 0.00 0.00 0.00 36 1018.5
20260503184130 62 23 2.0 3.0 0.00 0.00 0.00 37 1018.3
20260503183626 62 14 5.0 7.0 0.00 0.00 0.00 36 1018.7
20260503183124 61 196 7.0 8.0 0.00 0.00 0.00 41 1018.7
20260503182622 60 202 7.0 8.0 0.00 0.00 0.00 42 1018.4
20260503182120 61 230 9.0 11.0 0.00 0.00 0.00 38 1018.7
20260503181617 61 25 6.0 8.0 0.00 0.00 0.00 41 1018.7
20260503181113 60 177 3.0 5.0 0.00 0.00 0.00 39 1018.7
20260503180610 61 181 7.0 13.0 0.00 0.00 0.00 44 1019.0
20260503180109 59 321 5.0 7.0 0.00 0.00 0.00 39 1019.0
20260503175605 61 180 9.0 10.0 0.00 0.00 0.00 41 1018.9